sat.trackr.live / text

‹ back to catalog

STARLINK-33715

NORAD 63441 · 2025-069J

PAYLOAD ACTIVE UNKNOWN

§ Identity

Operator
Country
US
Launch date
2025-04-04
Launch site
AFWTR
Launch vehicle
Mass (kg)
RCS (m²)

Purposes: comms

External: N2YO · Heavens-Above · Gunter

§ Orbital elements

Epoch: 2026-05-24T06:53:43.886400Z

Period
93.38 min
Inclination
53.1591°
Eccentricity
0.0001092
Mean motion
15.42166458 rev/d
Perigee alt
439.0 km
Apogee alt
440.5 km
Semi-major
6,817.9 km
B*
6.7388e-4
RAAN
148.8734°
Arg perigee
84.1787°
Mean anomaly
275.9343°
Rev number
6,501

§ Raw data

STARLINK-337151 63441U 25069J   26144.28731350  .00029030  00000+0  67388-3 0  99942 63441  53.1591 148.8734 0001092  84.1787 275.9343 15.42166458 65013

JSON: /api/v1/satellites/63441 · /tle

For live sub-satellite position, see the globe view (requires WebGL).

§ Visibility from observer

Set your observer location to see the next 7 days of passes ≥ 10°. The values pass through the URL so the page stays shareable.

No JS? Fill the form by hand. The geolocation button needs JavaScript.